Retour au catalogue

GLOBALSTAR M002

ActifCommunicationsLEO
NORAD 25164·PAYLOAD·🇺🇸 United States

Lancé Feb 14, 1998 depuis Cape Canaveral Space Force Station

Loading…

Prochains Passages (prochaines 24 heures)

TLE

FraisSource: Space-Track

Époque: Sep 14, 2026, 04:51 UTC

1 25164U 98008C   26257.20224740 -.00000057  00000-0  37727-3 0  9998
2 25164  52.0002 181.8250 0000915 278.6437  81.4279 11.61517752236824

Suivez GLOBALSTAR M002 en temps réel avec AllMySat

Download on the App Store